IBE223 EGFF-LEMD

Flight info

Callsign IBE223
Flight time 1h 46m
Altitude 32000
Route EXMOR DCT LIZAD/N0480F330 DCT TOFLO DCT GATMO DCT DELOG N864 NONTU
Aircraft A346/H-SDE2E3FGHIJ3J4J5M1RWXY/LB1D1

Departure

Time 2026-05-04 17:02
Airport Cardiff International Airport (EGFF)

Arrival

Time 2026-05-04 18:49
Airport Adolfo Suárez Madrid–Barajas Airport (LEMD)
Time Latitude Longitude Altitude Speed Heading
2026-05-04 16:49 51.39833 -3.34104 231 ft 0 kts 81°
2026-05-04 16:55 51.39841 -3.34232 242 ft 4 kts 117°
2026-05-04 16:55 51.39871 -3.34277 237 ft 4 kts 175°
2026-05-04 16:56 51.39883 -3.34274 237 ft 0 kts 204°
2026-05-04 16:58 51.39878 -3.34429 231 ft 11 kts 295°
2026-05-04 16:58 51.39917 -3.34562 230 ft 16 kts 295°
2026-05-04 16:59 51.40033 -3.34933 228 ft 21 kts 300°
2026-05-04 17:00 51.40065 -3.35570 226 ft 5 kts 291°
2026-05-04 17:00 51.40140 -3.35735 228 ft 11 kts 313°
2026-05-04 17:01 51.40105 -3.35735 229 ft 6 kts 129°
2026-05-04 17:01 51.40057 -3.35590 228 ft 41 kts 117°
2026-05-04 17:02 51.39385 -3.33448 237 ft 162 kts 116°
2026-05-04 17:02 51.38250 -3.29893 1316 ft 191 kts 116°
2026-05-04 17:03 51.37646 -3.27970 1969 ft 198 kts 117°
2026-05-04 17:03 51.36999 -3.26288 2351 ft 208 kts 135°
2026-05-04 17:03 51.34125 -3.24693 3063 ft 243 kts 180°
2026-05-04 17:04 51.30696 -3.25998 4271 ft 262 kts 208°
2026-05-04 17:04 51.27750 -3.29471 6016 ft 266 kts 219°
2026-05-04 17:05 51.24677 -3.32842 7619 ft 273 kts 203°
2026-05-04 17:05 51.21044 -3.34639 9357 ft 277 kts 195°
2026-05-04 17:06 51.17281 -3.36392 10843 ft 291 kts 200°
2026-05-04 17:06 51.15325 -3.37594 11260 ft 309 kts 201°
2026-05-04 17:07 51.11115 -3.40256 12017 ft 345 kts 201°
2026-05-04 17:07 51.09589 -3.41221 12274 ft 357 kts 201°
2026-05-04 17:07 51.06415 -3.43224 12995 ft 372 kts 201°
2026-05-04 17:07 51.04022 -3.44733 13876 ft 373 kts 201°
2026-05-04 17:08 51.01603 -3.46256 14662 ft 376 kts 201°
2026-05-04 17:08 50.96679 -3.49351 16118 ft 383 kts 201°
2026-05-04 17:08 50.94182 -3.50916 16854 ft 387 kts 201°
2026-05-04 17:09 50.91691 -3.52475 17579 ft 390 kts 201°
2026-05-04 17:09 50.89136 -3.54073 18291 ft 394 kts 200°
2026-05-04 17:09 50.86566 -3.55678 18917 ft 398 kts 200°
2026-05-04 17:10 50.81367 -3.58919 20180 ft 404 kts 200°
2026-05-04 17:10 50.73437 -3.63848 22096 ft 412 kts 200°
2026-05-04 17:11 50.70746 -3.65517 22710 ft 415 kts 200°
2026-05-04 17:11 50.68041 -3.67193 23312 ft 418 kts 200°
2026-05-04 17:11 50.62594 -3.70561 24347 ft 424 kts 200°
2026-05-04 17:12 50.59863 -3.72246 24838 ft 427 kts 200°
2026-05-04 17:12 50.54283 -3.75682 25822 ft 432 kts 200°
2026-05-04 17:13 50.45783 -3.80902 27256 ft 440 kts 200°
2026-05-04 17:14 50.37119 -3.86200 28686 ft 447 kts 200°
2026-05-04 17:14 50.34228 -3.87964 29362 ft 445 kts 200°
2026-05-04 17:14 50.28509 -3.91447 30643 ft 441 kts 200°
2026-05-04 17:15 50.25632 -3.93195 31002 ft 444 kts 200°
2026-05-04 17:15 50.19837 -3.96707 31643 ft 451 kts 200°
2026-05-04 17:16 50.13933 -4.00278 31952 ft 456 kts 200°
2026-05-04 17:17 50.02090 -4.07416 31963 ft 456 kts 200°
2026-05-04 17:18 49.90191 -4.14546 31965 ft 457 kts 200°
2026-05-04 17:19 49.78320 -4.21624 31967 ft 457 kts 200°
2026-05-04 17:20 49.66372 -4.28525 31970 ft 457 kts 197°
2026-05-04 17:20 49.57054 -4.31459 31969 ft 457 kts 186°
2026-05-04 17:21 49.45398 -4.31279 31974 ft 458 kts 176°
2026-05-04 17:22 49.39028 -4.30470 31967 ft 458 kts 176°
2026-05-04 17:23 49.26352 -4.28873 31963 ft 459 kts 176°
2026-05-04 17:24 49.16788 -4.27675 31958 ft 459 kts 176°
2026-05-04 17:25 49.04071 -4.26089 31967 ft 459 kts 176°
2026-05-04 17:26 48.91294 -4.24524 31963 ft 462 kts 174°
2026-05-04 17:27 48.75236 -4.22535 31964 ft 462 kts 174°
2026-05-04 17:28 48.62443 -4.20965 31967 ft 462 kts 174°
2026-05-04 17:29 48.43204 -4.18620 31969 ft 463 kts 174°
2026-05-04 17:31 48.27172 -4.16679 31967 ft 463 kts 174°
2026-05-04 17:32 48.11090 -4.14745 31973 ft 464 kts 174°
2026-05-04 17:33 47.98214 -4.13205 31968 ft 464 kts 174°
2026-05-04 17:34 47.88451 -4.12042 32485 ft 468 kts 175°
2026-05-04 17:34 47.85213 -4.11658 33111 ft 464 kts 175°
2026-05-04 17:35 47.75638 -4.10082 34482 ft 463 kts 171°
2026-05-04 17:35 47.69282 -4.08596 35158 ft 464 kts 171°
2026-05-04 17:35 47.66089 -4.07859 35492 ft 465 kts 171°
2026-05-04 17:36 47.62859 -4.07114 35817 ft 465 kts 171°
2026-05-04 17:36 47.59649 -4.06374 36136 ft 466 kts 171°
2026-05-04 17:36 47.56484 -4.05644 36442 ft 466 kts 171°
2026-05-04 17:36 47.53268 -4.04903 36739 ft 467 kts 171°
2026-05-04 17:37 47.50048 -4.04161 37026 ft 467 kts 171°
2026-05-04 17:37 47.46820 -4.03418 37319 ft 468 kts 171°
2026-05-04 17:37 47.43596 -4.02677 37581 ft 468 kts 171°
2026-05-04 17:37 47.40404 -4.01944 37830 ft 469 kts 171°
2026-05-04 17:38 47.37160 -4.01200 37971 ft 470 kts 172°
2026-05-04 17:38 47.30696 -3.99721 37968 ft 470 kts 172°
2026-05-04 17:39 47.21012 -3.97510 37976 ft 470 kts 172°
2026-05-04 17:39 47.14499 -3.96027 37974 ft 470 kts 172°
2026-05-04 17:40 47.08035 -3.94560 37973 ft 471 kts 172°
2026-05-04 17:40 47.01546 -3.93089 37976 ft 471 kts 172°
2026-05-04 17:41 46.95041 -3.91619 37970 ft 471 kts 172°
2026-05-04 17:41 46.88581 -3.90163 37977 ft 471 kts 172°
2026-05-04 17:42 46.82118 -3.88709 37973 ft 471 kts 172°
2026-05-04 17:42 46.75628 -3.87253 37974 ft 471 kts 172°
2026-05-04 17:43 46.69170 -3.85807 37979 ft 471 kts 172°
2026-05-04 17:43 46.62668 -3.84356 37973 ft 470 kts 172°
2026-05-04 17:44 46.56229 -3.82923 37972 ft 470 kts 172°
2026-05-04 17:44 46.49761 -3.81486 37973 ft 469 kts 172°
2026-05-04 17:45 46.43287 -3.80052 37977 ft 469 kts 172°
2026-05-04 17:45 46.36873 -3.78634 37972 ft 469 kts 172°
2026-05-04 17:46 46.30399 -3.77206 37979 ft 468 kts 172°
2026-05-04 17:46 46.23968 -3.75792 37984 ft 468 kts 172°
2026-05-04 17:47 46.17412 -3.74353 37980 ft 468 kts 172°
2026-05-04 17:47 46.10978 -3.72964 37970 ft 468 kts 173°
2026-05-04 17:48 46.04485 -3.72202 37978 ft 467 kts 179°
2026-05-04 17:48 45.97968 -3.72393 37978 ft 466 kts 185°
2026-05-04 17:49 45.91489 -3.73397 37981 ft 466 kts 187°
2026-05-04 17:49 45.85057 -3.74456 37987 ft 467 kts 187°
2026-05-04 17:50 45.78592 -3.75513 37981 ft 467 kts 187°
2026-05-04 17:50 45.72149 -3.76566 37977 ft 467 kts 187°
2026-05-04 17:51 45.65703 -3.77617 37984 ft 467 kts 187°
2026-05-04 17:51 45.59240 -3.78670 37981 ft 467 kts 187°
2026-05-04 17:52 45.52810 -3.79715 37984 ft 467 kts 187°
2026-05-04 17:52 45.46340 -3.80765 37982 ft 466 kts 187°
2026-05-04 17:53 45.39912 -3.81808 37982 ft 466 kts 187°
2026-05-04 17:53 45.33451 -3.82855 37981 ft 466 kts 187°
2026-05-04 17:54 45.27030 -3.83891 37985 ft 466 kts 187°
2026-05-04 17:54 45.20579 -3.84930 37980 ft 466 kts 187°
2026-05-04 17:55 45.14140 -3.85963 37986 ft 465 kts 187°
2026-05-04 17:55 45.07698 -3.86994 37986 ft 466 kts 187°
2026-05-04 17:56 45.01227 -3.88027 37984 ft 466 kts 187°
2026-05-04 17:56 44.94792 -3.89052 37994 ft 466 kts 187°
2026-05-04 17:57 44.88332 -3.90078 37996 ft 466 kts 187°
2026-05-04 17:57 44.81911 -3.91096 37989 ft 466 kts 187°
2026-05-04 17:58 44.75406 -3.92125 37993 ft 466 kts 188°
2026-05-04 17:58 44.68991 -3.93140 37994 ft 466 kts 188°
2026-05-04 17:59 44.62473 -3.94171 37994 ft 466 kts 188°
2026-05-04 18:00 44.52765 -3.95701 37993 ft 466 kts 188°
2026-05-04 18:00 44.46345 -3.96708 37997 ft 466 kts 188°
2026-05-04 18:01 44.39844 -3.97725 38000 ft 466 kts 188°
2026-05-04 18:01 44.33360 -3.98422 37997 ft 467 kts 183°
2026-05-04 18:02 44.23572 -3.97884 37996 ft 468 kts 178°
2026-05-04 18:02 44.17066 -3.97247 37992 ft 468 kts 178°
2026-05-04 18:03 44.10539 -3.96614 38004 ft 468 kts 178°
2026-05-04 18:03 44.04079 -3.95986 38001 ft 467 kts 178°
2026-05-04 18:04 43.97575 -3.95356 38000 ft 468 kts 178°
2026-05-04 18:05 43.87829 -3.94412 38004 ft 468 kts 179°
2026-05-04 18:05 43.81327 -3.93784 38001 ft 468 kts 179°
2026-05-04 18:06 43.71604 -3.92846 38009 ft 468 kts 179°
2026-05-04 18:06 43.65066 -3.92216 38009 ft 468 kts 179°
2026-05-04 18:07 43.59665 -3.91697 38013 ft 467 kts 179°
2026-05-04 18:07 43.52113 -3.90974 38010 ft 467 kts 179°
2026-05-04 18:08 43.46712 -3.90627 38036 ft 465 kts 182°
2026-05-04 18:08 43.40255 -3.90997 38038 ft 462 kts 188°
2026-05-04 18:09 43.27497 -3.92894 38035 ft 462 kts 189°
2026-05-04 18:10 43.21090 -3.93838 38033 ft 462 kts 189°
2026-05-04 18:10 43.14680 -3.94783 38029 ft 462 kts 189°
2026-05-04 18:11 43.08265 -3.95724 38026 ft 463 kts 189°
2026-05-04 18:11 43.01835 -3.96663 38024 ft 463 kts 189°
2026-05-04 18:12 42.95348 -3.97612 38024 ft 464 kts 189°
2026-05-04 18:12 42.88943 -3.98546 38026 ft 465 kts 189°
2026-05-04 18:13 42.82478 -3.99487 38026 ft 465 kts 189°
2026-05-04 18:14 42.72833 -4.00889 38011 ft 466 kts 189°
2026-05-04 18:14 42.66401 -4.01822 38006 ft 466 kts 189°
2026-05-04 18:15 42.53490 -4.03688 38010 ft 465 kts 190°
2026-05-04 18:16 42.47083 -4.04611 37990 ft 464 kts 190°
2026-05-04 18:16 42.40649 -4.05537 37998 ft 464 kts 190°
2026-05-04 18:17 42.31027 -4.06914 37990 ft 463 kts 190°
2026-05-04 18:17 42.24626 -4.07830 37538 ft 466 kts 190°
2026-05-04 18:18 42.21397 -4.08291 36937 ft 465 kts 190°
2026-05-04 18:18 42.18153 -4.08753 36366 ft 465 kts 191°
2026-05-04 18:18 42.14973 -4.09206 35748 ft 465 kts 191°
2026-05-04 18:18 42.11722 -4.09670 35145 ft 465 kts 191°
2026-05-04 18:19 42.05292 -4.10585 33966 ft 464 kts 191°
2026-05-04 18:19 42.02117 -4.11033 33292 ft 463 kts 191°
2026-05-04 18:19 41.98889 -4.11425 32674 ft 461 kts 190°
2026-05-04 18:20 41.95682 -4.11783 32077 ft 460 kts 190°
2026-05-04 18:20 41.92494 -4.12136 31456 ft 458 kts 190°
2026-05-04 18:20 41.89316 -4.12490 30822 ft 458 kts 190°
2026-05-04 18:20 41.86136 -4.12847 30160 ft 457 kts 190°
2026-05-04 18:21 41.82994 -4.13203 29409 ft 457 kts 190°
2026-05-04 18:21 41.79824 -4.13564 28663 ft 456 kts 190°
2026-05-04 18:21 41.76659 -4.13925 27960 ft 455 kts 190°
2026-05-04 18:21 41.73504 -4.14282 27421 ft 449 kts 189°
2026-05-04 18:22 41.70445 -4.14626 26935 ft 443 kts 189°
2026-05-04 18:22 41.67386 -4.14970 26478 ft 437 kts 189°
2026-05-04 18:22 41.64373 -4.15310 26030 ft 431 kts 189°
2026-05-04 18:22 41.61410 -4.15645 25602 ft 425 kts 189°
2026-05-04 18:23 41.58500 -4.15974 25173 ft 421 kts 189°
2026-05-04 18:23 41.55587 -4.16303 24743 ft 416 kts 189°
2026-05-04 18:23 41.52709 -4.16629 24316 ft 413 kts 189°
2026-05-04 18:23 41.49880 -4.16948 23902 ft 410 kts 189°
2026-05-04 18:24 41.46998 -4.17276 23775 ft 421 kts 189°
2026-05-04 18:24 41.44061 -4.17608 23798 ft 424 kts 189°
2026-05-04 18:24 41.41110 -4.17938 23821 ft 425 kts 189°
2026-05-04 18:24 41.38144 -4.18269 23839 ft 426 kts 189°
2026-05-04 18:25 41.35222 -4.18596 23862 ft 426 kts 189°
2026-05-04 18:25 41.32259 -4.18927 23882 ft 427 kts 189°
2026-05-04 18:25 41.29299 -4.19259 23897 ft 427 kts 189°
2026-05-04 18:25 41.26292 -4.19571 23918 ft 428 kts 188°
2026-05-04 18:26 41.23315 -4.19756 23856 ft 429 kts 187°
2026-05-04 18:26 41.20334 -4.19940 23274 ft 429 kts 187°
2026-05-04 18:26 41.17358 -4.20123 22714 ft 424 kts 187°
2026-05-04 18:26 41.14441 -4.20301 22251 ft 418 kts 187°
2026-05-04 18:27 41.11548 -4.20476 21801 ft 413 kts 187°
2026-05-04 18:27 41.08653 -4.20652 21357 ft 408 kts 187°
2026-05-04 18:27 41.05830 -4.20824 20928 ft 403 kts 187°
2026-05-04 18:27 41.03058 -4.20992 20499 ft 399 kts 187°
2026-05-04 18:28 41.00299 -4.21160 20069 ft 395 kts 187°
2026-05-04 18:28 40.97555 -4.21327 19645 ft 392 kts 187°
2026-05-04 18:28 40.94847 -4.21491 19221 ft 389 kts 187°
2026-05-04 18:28 40.92159 -4.21655 18792 ft 386 kts 187°
2026-05-04 18:29 40.89460 -4.21819 18371 ft 384 kts 187°
2026-05-04 18:29 40.86792 -4.21980 17897 ft 382 kts 187°
2026-05-04 18:29 40.84136 -4.22139 17467 ft 379 kts 186°
2026-05-04 18:29 40.81534 -4.22296 17048 ft 375 kts 186°
2026-05-04 18:30 40.76376 -4.22607 16226 ft 369 kts 186°
2026-05-04 18:30 40.73815 -4.22762 15813 ft 367 kts 186°
2026-05-04 18:30 40.71271 -4.22915 15402 ft 365 kts 186°
2026-05-04 18:31 40.68727 -4.23069 15002 ft 364 kts 186°
2026-05-04 18:31 40.66178 -4.23222 14606 ft 362 kts 186°
2026-05-04 18:31 40.63691 -4.23370 14211 ft 360 kts 186°
2026-05-04 18:31 40.61187 -4.23520 13808 ft 359 kts 186°
2026-05-04 18:32 40.58669 -4.23671 13347 ft 356 kts 186°
2026-05-04 18:32 40.56200 -4.23819 13007 ft 349 kts 185°
2026-05-04 18:32 40.53814 -4.23844 12923 ft 336 kts 179°
2026-05-04 18:32 40.51568 -4.23396 12831 ft 326 kts 170°
2026-05-04 18:33 40.49435 -4.22508 12706 ft 316 kts 163°
2026-05-04 18:33 40.47411 -4.21468 12612 ft 304 kts 162°
2026-05-04 18:33 40.45481 -4.20450 12499 ft 292 kts 162°
2026-05-04 18:33 40.43647 -4.19488 12423 ft 280 kts 162°
2026-05-04 18:34 40.41862 -4.18563 12333 ft 269 kts 162°
2026-05-04 18:34 40.40141 -4.17678 12267 ft 264 kts 162°
2026-05-04 18:34 40.38452 -4.16814 12187 ft 262 kts 162°
2026-05-04 18:34 40.36746 -4.15943 12104 ft 261 kts 162°
2026-05-04 18:35 40.35076 -4.14990 11995 ft 265 kts 149°
2026-05-04 18:35 40.33840 -4.13154 11889 ft 273 kts 116°
2026-05-04 18:35 40.33201 -4.10789 11938 ft 276 kts 110°
2026-05-04 18:35 40.32643 -4.08388 11952 ft 276 kts 109°
2026-05-04 18:36 40.32075 -4.05958 11957 ft 276 kts 110°
2026-05-04 18:36 40.31493 -4.03529 11957 ft 276 kts 110°
2026-05-04 18:36 40.30898 -4.01100 11973 ft 276 kts 110°
2026-05-04 18:36 40.30307 -3.98722 11960 ft 276 kts 110°
2026-05-04 18:37 40.29700 -3.96298 11958 ft 276 kts 111°
2026-05-04 18:37 40.29105 -3.93929 11959 ft 276 kts 111°
2026-05-04 18:37 40.28463 -3.91377 11972 ft 277 kts 111°
2026-05-04 18:37 40.27846 -3.88932 11957 ft 277 kts 111°
2026-05-04 18:38 40.27199 -3.86370 11957 ft 277 kts 111°
2026-05-04 18:38 40.26470 -3.83487 11958 ft 277 kts 111°
2026-05-04 18:38 40.25847 -3.81024 11924 ft 277 kts 111°
2026-05-04 18:38 40.25208 -3.78511 11558 ft 279 kts 111°
2026-05-04 18:39 40.24492 -3.75695 11161 ft 278 kts 110°
2026-05-04 18:39 40.23773 -3.72862 10802 ft 275 kts 110°
2026-05-04 18:39 40.23136 -3.70348 10509 ft 273 kts 110°
2026-05-04 18:39 40.22537 -3.67988 10212 ft 270 kts 110°
2026-05-04 18:40 40.21948 -3.65672 9939 ft 268 kts 110°
2026-05-04 18:40 40.21355 -3.63349 9633 ft 267 kts 110°
2026-05-04 18:40 40.20768 -3.61046 9346 ft 265 kts 110°
2026-05-04 18:40 40.20186 -3.58763 9057 ft 263 kts 110°
2026-05-04 18:41 40.19606 -3.56499 8775 ft 260 kts 110°
2026-05-04 18:41 40.19035 -3.54269 8501 ft 259 kts 110°
2026-05-04 18:41 40.18455 -3.52008 8229 ft 257 kts 110°
2026-05-04 18:41 40.17886 -3.49780 7972 ft 255 kts 110°
2026-05-04 18:42 40.17413 -3.47518 7671 ft 257 kts 92°
2026-05-04 18:42 40.17744 -3.45246 7178 ft 262 kts 58°
2026-05-04 18:42 40.18921 -3.43474 6868 ft 257 kts 39°
2026-05-04 18:42 40.20299 -3.41977 6599 ft 252 kts 33°
2026-05-04 18:43 40.21756 -3.40698 6331 ft 248 kts 27°
2026-05-04 18:43 40.23266 -3.39615 6059 ft 245 kts 24°
2026-05-04 18:43 40.24769 -3.38634 5788 ft 242 kts 17°
2026-05-04 18:43 40.26412 -3.38099 5525 ft 235 kts
2026-05-04 18:44 40.28039 -3.37950 5277 ft 232 kts 358°
2026-05-04 18:44 40.28571 -3.37920 5188 ft 231 kts 358°
2026-05-04 18:44 40.31265 -3.37870 5061 ft 238 kts 344°
2026-05-04 18:44 40.32738 -3.38734 5871 ft 237 kts 322°
2026-05-04 18:45 40.34226 -3.40121 5080 ft 273 kts 321°
2026-05-04 18:45 40.35700 -3.41621 4528 ft 253 kts 318°
2026-05-04 18:45 40.37014 -3.43052 3981 ft 239 kts 317°
2026-05-04 18:45 40.38307 -3.44421 3929 ft 234 kts 318°
2026-05-04 18:46 40.39518 -3.45676 4539 ft 0 kts 318°
2026-05-04 18:46 40.39782 -3.45975 3862 ft 171 kts 317°
2026-05-04 18:46 40.40693 -3.46881 3955 ft 159 kts 319°
2026-05-04 18:46 40.41491 -3.47702 3291 ft 162 kts 319°
2026-05-04 18:47 40.42391 -3.48570 3204 ft 157 kts 319°
2026-05-04 18:47 40.43266 -3.49440 2941 ft 155 kts 318°
2026-05-04 18:47 40.44125 -3.50320 2691 ft 155 kts 318°
2026-05-04 18:47 40.44978 -3.51194 2404 ft 153 kts 319°
2026-05-04 18:48 40.45801 -3.52048 2207 ft 151 kts 320°
2026-05-04 18:48 40.46662 -3.52913 2031 ft 150 kts 320°
2026-05-04 18:48 40.47502 -3.53758 1894 ft 144 kts 321°
2026-05-04 18:48 40.48148 -3.54417 1927 ft 89 kts 320°
2026-05-04 18:49 40.48504 -3.54779 1935 ft 40 kts 323°
2026-05-04 18:49 40.48704 -3.55003 1942 ft 35 kts 311°
2026-05-04 18:49 40.48820 -3.55263 1945 ft 32 kts 291°
2026-05-04 18:49 40.48933 -3.55501 1949 ft 29 kts 322°
2026-05-04 18:50 40.49082 -3.55657 1953 ft 26 kts 321°
2026-05-04 18:50 40.49232 -3.55810 1957 ft 26 kts 322°
2026-05-04 18:50 40.49301 -3.55994 1961 ft 23 kts 270°
2026-05-04 18:50 40.49295 -3.56200 1965 ft 22 kts 248°
2026-05-04 18:51 40.49211 -3.56172 1965 ft 13 kts 131°
2026-05-04 18:51 40.49127 -3.56144 1965 ft 14 kts 179°
2026-05-04 18:51 40.49023 -3.56144 1966 ft 16 kts 182°
2026-05-04 18:51 40.48902 -3.56156 1968 ft 18 kts 181°
2026-05-04 18:52 40.48808 -3.56213 1962 ft 14 kts 231°
2026-05-04 18:52 40.48774 -3.56315 1978 ft 11 kts 262°
2026-05-04 18:52 40.48771 -3.56347 1979 ft 10 kts 266°